Home > Weather > Famagusta > Past weeks

Flag for Cyprus Past Weather in Famagusta, Northern Cyprus, Cyprus — Yesterday and Last 2 Weeks

Now
86 °F

Scattered clouds.


Feels Like: 93 °F
Forecast: 74 / 89 °F
Wind: 16 mph from South

Location: Larnaca Airport

Current Time: Jun 29, 2016 at 2:07:19 PM

Latest Report: Jun 29, 2016 at 1:30 PM


Visibility: N/A

Pressure: 29.71 "Hg

Humidity: 66%

Dew Point: 73 °F

Location of FamagustaLocation

Past Weather in Famagusta — Graph

°F

Famagusta Temperature Yesterday

Maximum temperature yesterday: 88 °F (at 2:30 PM)
Minimum temperature yesterday: 72 °F (at 4:30 AM)
Average temperature yesterday: 80 °F

High & Low Weather Summary for the Past Weeks

 TemperatureHumidityPressure
High100 °F (Jun 20, 10:30 AM)100% (Jun 15, 2:30 AM)29.83 "Hg (Jun 15, 2:30 AM)
Low68 °F (Jun 15, 4:00 AM)18% (Jun 20, 9:00 AM)29.62 "Hg (Jun 24, 7:30 PM)
Average84 °F56%29.73 "Hg
* Reported Jun 14 1:00 PM — Jun 29 1:00 PM, Famagusta, Weather by CustomWeather, © 2016

Note: Actual official high and low records may vary slightly from our data, if they occured in-between our weather recording intervals... More about our weather records

Advertising

Famagusta Weather History for the Previous 24 Hours

Scroll right to see more
 ConditionsComfort  
Time TempWeatherWind HumidityBarometerVisibility
1:00 PM
Wed, Jun 29
86 °FScattered clouds.17 mph66%29.71 "HgN/A
12:30 PM84 °FPassing clouds.17 mph66%29.74 "HgN/A
12:00 PM86 °FPassing clouds.15 mph66%29.74 "HgN/A
11:30 AM84 °FScattered clouds.13 mph70%29.74 "HgN/A
11:00 AM84 °FScattered clouds.10 mph70%29.74 "HgN/A
10:30 AM84 °FPartly sunny.10 mph70%29.74 "HgN/A
10:00 AM84 °FPartly sunny.10 mph70%29.74 "HgN/A
9:30 AM82 °FPartly sunny.7 mph74%29.74 "HgN/A
9:00 AM82 °FPartly sunny.9 mph74%29.71 "Hg5 mi
8:30 AM81 °FPartly sunny.7 mph79%29.71 "Hg4 mi
8:00 AM81 °FPartly sunny.6 mph84%29.71 "Hg4 mi
7:30 AM79 °FScattered clouds.5 mph89%29.71 "Hg4 mi
7:00 AM77 °FPartly sunny.2 mph94%29.71 "Hg4 mi
6:30 AM75 °FPassing clouds.1 mph89%29.71 "Hg4 mi
6:00 AM73 °FPassing clouds.1 mph94%29.68 "Hg4 mi
5:30 AM73 °FPassing clouds.1 mph94%29.68 "Hg5 mi
5:00 AM73 °FClear.No wind94%29.68 "Hg5 mi
4:30 AM73 °FClear.2 mph100%29.68 "Hg5 mi
4:00 AM75 °FClear.2 mph94%29.68 "Hg4 mi
3:30 AM75 °FClear.3 mph100%29.68 "Hg4 mi
3:00 AM77 °FClear.3 mph94%29.68 "Hg4 mi
2:30 AM77 °FClear.5 mph100%29.68 "Hg10 mi
2:00 AM77 °FClear.6 mph100%29.68 "Hg10 mi
1:30 AM77 °FClear.7 mph94%29.68 "Hg10 mi
1:00 AM77 °FClear.7 mph94%29.68 "Hg10 mi
12:30 AM77 °FClear.7 mph94%29.68 "Hg10 mi
12:00 AM79 °FClear.7 mph89%29.71 "Hg10 mi
11:30 PM
Tue, Jun 28
79 °FClear.7 mph89%29.68 "Hg10 mi
11:00 PM79 °FClear.8 mph89%29.68 "Hg10 mi
10:30 PM79 °FClear.12 mph89%29.68 "Hg5 mi
10:00 PM79 °FClear.13 mph89%29.68 "Hg5 mi
9:30 PM79 °FClear.13 mph89%29.68 "Hg5 mi
9:00 PM79 °FClear.13 mph89%29.65 "Hg5 mi
8:30 PM79 °FSunny.15 mph89%29.65 "Hg10 mi
8:00 PM81 °FSunny.16 mph84%29.65 "Hg10 mi
7:30 PM81 °FSunny.18 mph84%29.65 "Hg10 mi
7:00 PM82 °FSunny.17 mph74%29.65 "Hg10 mi
6:30 PM82 °FSunny.18 mph74%29.65 "Hg10 mi
6:00 PM82 °FPassing clouds.16 mph70%29.65 "HgN/A
5:30 PM84 °FPassing clouds.17 mph66%29.62 "HgN/A
5:00 PM84 °FPassing clouds.17 mph66%29.65 "HgN/A
4:30 PM86 °FPassing clouds.18 mph62%29.65 "HgN/A
4:00 PM86 °FPassing clouds.17 mph62%29.65 "HgN/A
3:30 PM86 °FPassing clouds.18 mph59%29.65 "HgN/A
3:00 PM88 °FPassing clouds.20 mph59%29.65 "HgN/A
2:30 PM88 °FPassing clouds.18 mph59%29.65 "HgN/A
2:00 PM86 °FPassing clouds.16 mph62%29.65 "HgN/A
Weather by CustomWeather, © 2016

See weather overviewHow to use our weather pages